Weather History for Willmar, MN

Change the Weather History Date:

Wednesday, May 13, 2009

  Actual Average (KLJF) Record (KLJF)
Temperature  
Mean Temperature 65 °F -  
Max Temperature 71 °F 69 °F 93 °F (2007)
Min Temperature 59 °F 42 °F 30 °F (1953)
Growing Degree Days 15 (Base 50)    
Moisture  
Dew Point 50 °F    
Average Humidity 68    
Maximum Humidity 100    
Minimum Humidity 26    
Precipitation  
Precipitation 0.05 in - - ()
Sea Level Pressure  
Sea Level Pressure 29.57 in    
Wind  
Wind Speed 14 mph (WSW)    
Max Wind Speed 32 mph    
Max Gust Speed 41 mph    
Visibility 8 miles    
Events Rain    
Averages and records for this station are not official NWS values.
T = Trace of Precipitation, MM = Missing Value Source: NWS Daily Summary

Daily Weather History Graph

Daily Weather History Graph

Search for Another Location

Airport:

Trip Planner

Search our weather history database for the weather conditions in past years. The results will help you decide how hot, cold, wet, or windy it might be!

Date:

Astronomy

May. 13, 2009 Rise Set
Actual Time 5:53 AM CDT 8:41 PM CDT
Civil Twilight 5:19 AM CDT 9:15 PM CDT
Nautical Twilight 4:35 AM CDT 9:58 PM CDT
Astronomical Twilight 3:45 AM CDT 10:49 PM CDT
Moon 12:25 AM CDT (5/13) 8:58 AM CDT (5/13)
Length of Visible Light 15h 56m
Length of Day
14h 48m
Waning Gibbous, 82% of the Moon is Illuminated
May 13
Waning Gibbous
May 17
Last Quarter
May 24
New
May 30
First Quarter
Jun 7
Full

Hourly Weather History & Observations

Time (CDT) Temp. Dew Point Humidity Pressure Visibility Wind Dir Wind Speed Gust Speed Precip Events Conditions
12:15 AM 59.0 °F 57.2 °F 94% 29.59 in 3.0 mi SSE 13.8 mph 18.4 mph N/A   Drizzle
12:36 AM 59.0 °F 57.2 °F 94% 29.59 in 3.0 mi SSE 12.7 mph 19.6 mph N/A   Light Drizzle
12:55 AM 59.0 °F 57.2 °F 94% 29.59 in 4.0 mi South 11.5 mph 18.4 mph N/A Rain Light Rain
1:15 AM 59.0 °F 57.2 °F 94% 29.60 in 3.0 mi SSE 8.1 mph 17.3 mph 0.01 in   Drizzle
1:35 AM 59.0 °F 57.2 °F 94% 29.59 in 2.5 mi South 5.8 mph 20.7 mph 0.02 in   Drizzle
1:55 AM 59.0 °F 57.2 °F 94% 29.57 in 2.5 mi SSE 11.5 mph - 0.02 in   Drizzle
2:15 AM 59.0 °F 57.2 °F 94% 29.56 in 3.0 mi SSE 11.5 mph 17.3 mph 0.01 in Rain Rain
2:36 AM 59.0 °F 57.2 °F 94% 29.55 in 4.0 mi SSE 9.2 mph - 0.02 in Rain Light Rain
2:56 AM 59.0 °F 57.2 °F 94% 29.54 in 4.0 mi South 6.9 mph - N/A   Overcast
3:15 AM 59.0 °F 57.2 °F 94% 29.52 in 4.0 mi SSE 13.8 mph 19.6 mph N/A Rain Light Rain
3:35 AM 60.8 °F 59.0 °F 94% 29.52 in 4.0 mi SSE 13.8 mph - N/A Rain Rain
3:55 AM 60.8 °F 59.0 °F 94% 29.50 in 5.0 mi SSE 15.0 mph 23.0 mph 0.01 in Rain Light Rain
4:15 AM 60.8 °F 59.0 °F 94% 29.51 in 7.0 mi SSE 10.4 mph 23.0 mph N/A   Overcast
4:36 AM 60.8 °F 59.0 °F 94% 29.51 in 5.0 mi South 5.8 mph 17.3 mph N/A   Overcast
4:56 AM 60.8 °F 60.8 °F 100% 29.52 in 5.0 mi South 4.6 mph - N/A   Overcast
5:15 AM 60.8 °F 60.8 °F 100% 29.52 in 5.0 mi South 5.8 mph - N/A   Mostly Cloudy
5:35 AM 60.8 °F 60.8 °F 100% 29.52 in 5.0 mi SSW 4.6 mph - N/A   Mostly Cloudy
5:55 AM 60.8 °F 60.8 °F 100% 29.52 in 4.0 mi SSW 6.9 mph - N/A   Mostly Cloudy
6:15 AM 60.8 °F 60.8 °F 100% 29.52 in 5.0 mi SSW 10.4 mph 16.1 mph N/A   Scattered Clouds
6:36 AM 60.8 °F 60.8 °F 100% 29.53 in 4.0 mi SSW 8.1 mph - N/A   Scattered Clouds
6:55 AM 60.8 °F 59.0 °F 94% 29.53 in 4.0 mi SSW 9.2 mph - N/A   Scattered Clouds
7:15 AM 60.8 °F 59.0 °F 94% 29.54 in 3.0 mi SW 10.4 mph - N/A   Clear
7:36 AM 60.8 °F 60.8 °F 100% 29.55 in 4.0 mi WSW 11.5 mph - N/A   Clear
7:55 AM 60.8 °F 57.2 °F 88% 29.56 in 7.0 mi West 12.7 mph - N/A   Clear
8:15 AM 60.8 °F 55.4 °F 82% 29.56 in 10.0 mi West 16.1 mph - N/A   Clear
8:35 AM 60.8 °F 55.4 °F 82% 29.56 in 10.0 mi West 13.8 mph - N/A   Clear
8:55 AM 59.0 °F 55.4 °F 88% 29.57 in 10.0 mi West 12.7 mph - N/A   Scattered Clouds
9:15 AM 60.8 °F 55.4 °F 82% 29.56 in 10.0 mi West 13.8 mph - N/A   Clear
9:36 AM 62.6 °F 55.4 °F 77% 29.56 in 10.0 mi West 15.0 mph - N/A   Clear
9:55 AM 62.6 °F 55.4 °F 77% 29.56 in 10.0 mi West 15.0 mph - N/A   Clear
10:15 AM 64.4 °F 53.6 °F 68% 29.57 in 10.0 mi West 10.4 mph 13.8 mph N/A   Clear
10:35 AM 64.4 °F 53.6 °F 68% 29.57 in 10.0 mi WNW 13.8 mph 17.3 mph N/A   Clear
10:55 AM 66.2 °F 53.6 °F 64% 29.57 in 10.0 mi WNW 15.0 mph 20.7 mph N/A   Clear
11:15 AM 64.4 °F 51.8 °F 64% 29.56 in 10.0 mi WNW 11.5 mph 20.7 mph N/A   Clear
11:35 AM 66.2 °F 51.8 °F 60% 29.56 in 10.0 mi West 16.1 mph 20.7 mph N/A   Clear
11:56 AM 66.2 °F 51.8 °F 60% 29.56 in 10.0 mi West 15.0 mph 19.6 mph N/A   Clear
12:15 PM 66.2 °F 51.8 °F 60% 29.55 in 10.0 mi West 15.0 mph - N/A   Clear
12:35 PM 68.0 °F 50.0 °F 52% 29.56 in 10.0 mi West 17.3 mph 20.7 mph N/A   Clear
12:55 PM 68.0 °F 48.2 °F 49% 29.57 in 10.0 mi West 15.0 mph 23.0 mph N/A   Clear
1:15 PM 68.0 °F 48.2 °F 49% 29.57 in 10.0 mi West 15.0 mph 20.7 mph N/A   Scattered Clouds
1:35 PM 71.6 °F 48.2 °F 43% 29.57 in 10.0 mi West 17.3 mph 23.0 mph N/A   Clear
1:56 PM 69.8 °F 44.6 °F 40% 29.57 in 10.0 mi West 13.8 mph - N/A   Clear
2:15 PM 71.6 °F 42.8 °F 35% 29.57 in 10.0 mi West 17.3 mph 27.6 mph N/A   Scattered Clouds
2:35 PM 71.6 °F 39.2 °F 31% 29.57 in 10.0 mi West 20.7 mph 27.6 mph N/A   Clear
2:55 PM 71.6 °F 41.0 °F 33% 29.57 in 10.0 mi WNW 24.2 mph 28.8 mph N/A   Scattered Clouds
3:15 PM 71.6 °F 41.0 °F 33% 29.57 in 10.0 mi West 24.2 mph 28.8 mph N/A   Clear
3:35 PM 71.6 °F 39.2 °F 31% 29.57 in 10.0 mi West 27.6 mph 32.2 mph N/A   Clear
3:55 PM 71.6 °F 39.2 °F 31% 29.58 in 10.0 mi West 20.7 mph 31.1 mph N/A   Clear
4:15 PM 69.8 °F 39.2 °F 33% 29.59 in 10.0 mi West 24.2 mph 31.1 mph N/A   Scattered Clouds
4:35 PM 69.8 °F 37.4 °F 31% 29.59 in 10.0 mi West 29.9 mph 35.7 mph N/A   Scattered Clouds
4:56 PM 68.0 °F 37.4 °F 33% 29.59 in 10.0 mi West 26.5 mph 34.5 mph N/A   Scattered Clouds
5:15 PM 66.2 °F 35.6 °F 32% 29.60 in 10.0 mi West 26.5 mph 35.7 mph N/A   Scattered Clouds
5:35 PM 66.2 °F 33.8 °F 30% 29.61 in 10.0 mi West 27.6 mph 38.0 mph N/A   Scattered Clouds
5:56 PM 64.4 °F 33.8 °F 32% 29.62 in 10.0 mi West 29.9 mph 38.0 mph N/A   Scattered Clouds
6:15 PM 64.4 °F 30.2 °F 28% 29.63 in 10.0 mi West 27.6 mph 39.1 mph N/A   Scattered Clouds
6:35 PM 64.4 °F 28.4 °F 26% 29.64 in 10.0 mi West 32.2 mph 41.4 mph N/A   Clear
6:55 PM 64.4 °F 28.4 °F 26% 29.64 in 10.0 mi West 28.8 mph 34.5 mph N/A   Clear
7:15 PM 62.6 °F 30.2 °F 30% 29.65 in 10.0 mi WNW 31.1 mph 39.1 mph N/A   Scattered Clouds
7:35 PM 60.8 °F 30.2 °F 31% 29.65 in 10.0 mi WNW 19.6 mph 31.1 mph N/A   Scattered Clouds
7:55 PM 59.0 °F 30.2 °F 34% 29.65 in 10.0 mi WNW 19.6 mph 28.8 mph N/A   Clear
8:15 PM 59.0 °F 30.2 °F 34% 29.65 in 10.0 mi WNW 15.0 mph 23.0 mph N/A   Clear
8:35 PM 57.2 °F 32.0 °F 38% 29.65 in 10.0 mi WNW 10.4 mph - N/A   Clear
8:55 PM 55.4 °F 33.8 °F 44% 29.65 in 10.0 mi West 10.4 mph 16.1 mph N/A   Clear
9:15 PM 53.6 °F 32.0 °F 44% 29.66 in 10.0 mi West 9.2 mph - N/A   Clear
9:35 PM 55.4 °F 30.2 °F 38% 29.66 in 10.0 mi West 12.7 mph - N/A   Clear
9:56 PM 55.4 °F 33.8 °F 44% 29.66 in 10.0 mi West 16.1 mph 20.7 mph N/A   Clear
10:15 PM 53.6 °F 33.8 °F 47% 29.68 in 10.0 mi West 12.7 mph - N/A   Scattered Clouds
10:35 PM 55.4 °F 37.4 °F 51% 29.70 in 10.0 mi WNW 24.2 mph 33.4 mph N/A   Scattered Clouds
10:55 PM 53.6 °F 37.4 °F 54% 29.71 in 10.0 mi WNW 20.7 mph 31.1 mph N/A   Clear
11:15 PM 51.8 °F 37.4 °F 58% 29.72 in 10.0 mi WNW 21.9 mph 27.6 mph N/A   Clear
11:35 PM 51.8 °F 37.4 °F 58% 29.73 in 10.0 mi WNW 23.0 mph 29.9 mph N/A   Clear
11:56 PM 51.8 °F 37.4 °F 58% 29.74 in 10.0 mi WNW 27.6 mph 35.7 mph N/A   Clear